Home > Weather > Stephenville > Past weeks

Flag for Canada Weather for the Past 2 Weeks in Stephenville, Newfoundland and Labrador, Canada

Now
36 °F

More clouds than sun.


Feels Like: 33 °F
Forecast: N/A
Wind: 3 mph from Northwest

Location: Stephenville

Current Time: Apr 28, 2016 at 7:52:37 PM

Latest Report: Apr 28, 2016 at 6:30 PM


Visibility: 10 mi

Pressure: 29.64 "Hg

Humidity: 93%

Dew Point: 34 °F

Location of StephenvilleLocation

Historic Weather in Stephenville — Graph

°F

Stephenville Temperature Yesterday

Maximum temperature yesterday: 39 °F (at 2:30 PM)
Minimum temperature yesterday: 28 °F (at 2:30 AM)
Average temperature yesterday: 33 °F

High & Low Weather Summary for the Past Weeks

 TemperatureHumidityPressure
High61 °F (Apr 22, 3:30 PM)100% (Apr 13, 6:30 PM)30.52 "Hg (Apr 13, 6:30 PM)
Low23 °F (Apr 19, 2:30 AM)36% (Apr 20, 11:30 AM)29.49 "Hg (Apr 21, 12:30 PM)
Average36 °F75%29.97 "Hg
* Reported Apr 13 6:30 PM — Apr 28 6:30 PM, Stephenville, Weather by CustomWeather, © 2016

Note: Actual official high and low records may vary slightly from our data, if they occured in-between our weather recording intervals... More about our weather records

Advertising

Stephenville Weather History for the Previous 24 Hours

Scroll right to see more
 ConditionsComfort  
Time TempWeatherWind HumidityBarometerVisibility
6:30 PM
Thu, Apr 28
36 °FMore clouds than sun.3 mph93%29.64 "Hg10 mi
5:30 PM34 °FMore clouds than sun.3 mph93%29.63 "Hg10 mi
4:30 PM34 °FLight snow. Overcast.9 mph93%29.63 "Hg2 mi
3:30 PM34 °FLight snow. Dense fog.6 mph93%29.63 "Hg1 mi
2:30 PM34 °FSnow flurries. Overcast.7 mph93%29.65 "Hg4 mi
1:30 PM39 °FOvercast.13 mph65%29.65 "Hg12 mi
12:30 PM41 °FOvercast.18 mph49%29.66 "Hg15 mi
11:30 AM39 °FPartly sunny.12 mph48%29.69 "Hg15 mi
10:30 AM39 °FPartly sunny.12 mph45%29.71 "Hg15 mi
9:30 AM37 °FPartly sunny.9 mph48%29.73 "Hg15 mi
8:30 AM36 °FPartly sunny.10 mph52%29.74 "Hg15 mi
7:30 AM36 °FMostly cloudy.7 mph52%29.76 "Hg15 mi
6:30 AM34 °FPassing clouds.7 mph65%29.77 "Hg15 mi
5:30 AM34 °FPassing clouds.3 mph70%29.80 "Hg15 mi
4:30 AM34 °FOvercast.12 mph51%29.82 "Hg15 mi
3:30 AM32 °FOvercast.7 mph64%29.83 "Hg15 mi
2:30 AM32 °FOvercast.No wind60%29.85 "Hg15 mi
1:30 AM30 °FPassing clouds.6 mph69%29.85 "Hg15 mi
12:30 AM32 °FPassing clouds.5 mph64%29.86 "Hg15 mi
11:30 PM
Wed, Apr 27
30 °FPassing clouds.3 mph75%29.88 "Hg15 mi
10:30 PM30 °FPassing clouds.No wind75%29.85 "Hg15 mi
9:30 PM30 °FPassing clouds.3 mph69%29.84 "Hg15 mi
8:30 PM32 °FPassing clouds.5 mph64%29.83 "Hg15 mi
7:30 PM36 °FPassing clouds.6 mph48%29.83 "Hg15 mi
Weather by CustomWeather, © 2016

See weather overviewHow to use our weather pages